Dayton Wright, OH

4:40 PM EDT on June 26, 2017 (GMT -0400)
Dayton-Wright Brothers

Weather History for KMGY - January, 2014

Change the Weather History Date:

Saturday, January 25, 2014

  Actual Average (KFFO) Record (KFFO)
Temperature  
Mean Temperature 22 °F -  
Max Temperature 33 °F 34 °F 55 °F (2017)
Min Temperature 10 °F 17 °F -7 °F (2000)
Degree Days  
Heating Degree Days 42    
Moisture  
Dew Point 15 °F    
Average Humidity 76    
Maximum Humidity 93    
Minimum Humidity 40    
Precipitation  
Precipitation 0.00 in - - ()
Sea Level Pressure  
Sea Level Pressure 29.63 in    
Wind  
Wind Speed 20 mph (WSW)    
Max Wind Speed 31 mph    
Max Gust Speed 48 mph    
Visibility 4 miles    
Events Fog , Snow    
Averages and records for this station are not official NWS values.
T = Trace of Precipitation, MM = Missing Value Source: NWS Daily Summary

Daily Weather History Graph

Daily Weather History Graph

Search for Another Location

Airport or City:

Trip Planner

Search our weather history database for the weather conditions in past years. The results will help you decide how hot, cold, wet, or windy it might be!

Date:

Astronomy

Jan. 25, 2014 Rise Set
Actual Time 7:50 AM EST 5:48 PM EST
Civil Twilight 7:21 AM EST 6:17 PM EST
Nautical Twilight 6:48 AM EST 6:50 PM EST
Astronomical Twilight 6:16 AM EST 7:22 PM EST
Moon 2:21 AM EST (1/25) 12:48 PM EST (1/25)
Length of Visible Light 10h 56m
Length of Day
9h 58m
Waning Crescent, 34% of the Moon is Illuminated
Jan 25
Waning Crescent
Jan 30
New
Feb 6
First Quarter
Feb 14
Full
Feb 22
Last Quarter

Hourly Weather History & Observations

Time (EST) Temp. Windchill Dew Point Humidity Pressure Visibility Wind Dir Wind Speed Gust Speed Precip Events Conditions
12:21 AM 19.9 °F 2.5 °F 8.1 °F 60% 29.79 in 2.0 mi SW 25.3 mph 35.7 mph 0.00 in Snow Light Snow
12:34 AM 19.0 °F 1.6 °F 10.9 °F 71% 29.78 in 1.2 mi SW 24.2 mph 36.8 mph 0.00 in Snow Light Snow
12:46 AM 19.0 °F 1.3 °F 12.0 °F 74% 29.77 in 0.8 mi SW 25.3 mph 33.4 mph 0.00 in Snow Light Snow
12:53 AM 19.0 °F 3.2 °F 14.0 °F 81% 29.81 in 0.8 mi SW 19.6 mph 33.4 mph 0.00 in Snow Light Snow
1:07 AM 19.0 °F 2.7 °F 14.0 °F 81% 29.75 in 1.0 mi SW 20.7 mph 27.6 mph 0.00 in Snow Light Snow
1:44 AM 19.0 °F 3.6 °F 15.1 °F 85% 29.73 in 0.8 mi SW 18.4 mph 29.9 mph 0.00 in Snow Light Snow
1:53 AM 19.0 °F 3.2 °F 15.1 °F 85% 29.77 in 0.8 mi SW 19.6 mph 31.1 mph 0.00 in Snow Light Snow
2:32 AM 19.0 °F 4.5 °F 16.0 °F 88% 29.69 in 0.5 mi SSW 16.1 mph 32.2 mph 0.00 in Fog , Snow Snow
2:53 AM 19.0 °F 3.6 °F 16.0 °F 88% 29.72 in 0.5 mi SSW 18.4 mph 26.5 mph 0.00 in Fog , Snow Snow
3:17 AM 19.0 °F 2.7 °F 16.0 °F 88% 29.66 in 0.8 mi SSW 20.7 mph 28.8 mph 0.00 in Snow Light Snow
3:31 AM 19.9 °F 4.8 °F 16.0 °F 85% 29.65 in 1.0 mi SW 18.4 mph 24.2 mph 0.00 in Snow Light Snow
3:40 AM 19.9 °F 4.3 °F 16.0 °F 85% 29.64 in 1.0 mi SSW 19.6 mph 31.1 mph 0.00 in Snow Light Snow
3:53 AM 19.9 °F 5.2 °F 16.0 °F 85% 29.67 in 1.2 mi SSW 17.3 mph 32.2 mph 0.00 in Snow Light Snow
4:53 AM 19.9 °F 5.2 °F 17.1 °F 89% 29.63 in 1.0 mi SW 17.3 mph 26.5 mph 0.00 in Snow Light Snow
5:16 AM 19.9 °F 4.3 °F 17.1 °F 89% 29.57 in 1.2 mi SSW 19.6 mph 29.9 mph 0.00 in Snow Light Snow
5:53 AM 19.9 °F 4.8 °F 17.1 °F 89% 29.62 in 1.0 mi SW 18.4 mph 25.3 mph 0.00 in Snow Light Snow
6:05 AM 19.9 °F 4.8 °F 17.1 °F 89% 29.57 in 3.0 mi SSW 18.4 mph 25.3 mph 0.00 in Snow Light Snow
6:20 AM 21.0 °F 7.1 °F 17.1 °F 85% 29.56 in 2.5 mi SW 16.1 mph 28.8 mph 0.00 in Snow Light Snow
6:33 AM 21.0 °F 6.6 °F 18.0 °F 88% 29.55 in 1.5 mi SW 17.3 mph 25.3 mph 0.00 in Snow Light Snow
6:53 AM 21.0 °F 6.6 °F 18.0 °F 88% 29.59 in 1.2 mi SSW 17.3 mph 24.2 mph 0.00 in Snow Light Snow
7:18 AM 21.0 °F 5.7 °F 18.0 °F 88% 29.54 in 0.8 mi SW 19.6 mph 29.9 mph 0.00 in Snow Light Snow
7:29 AM 21.0 °F 7.1 °F 18.0 °F 88% 29.53 in 1.2 mi SW 16.1 mph 29.9 mph 0.00 in Snow Light Snow
7:53 AM 21.0 °F 7.1 °F 19.0 °F 92% 29.57 in 1.0 mi SW 16.1 mph 28.8 mph 0.00 in Snow Light Snow
8:04 AM 21.9 °F 7.3 °F 19.0 °F 89% 29.52 in 0.5 mi SW 18.4 mph 26.5 mph 0.00 in Fog , Snow Snow
8:22 AM 21.9 °F 7.3 °F 19.0 °F 89% 29.52 in 0.8 mi SW 18.4 mph 25.3 mph 0.00 in Snow Light Snow
8:31 AM 21.9 °F 6.5 °F 19.0 °F 89% 29.52 in 1.2 mi SW 20.7 mph 27.6 mph 0.00 in Snow Light Snow
8:39 AM 21.9 °F 7.8 °F 19.0 °F 89% 29.52 in 2.0 mi SW 17.3 mph 27.6 mph 0.00 in Snow Light Snow
8:49 AM 21.2 °F 5.6 °F 19.4 °F 93% 29.52 in 1.2 mi SW 20.7 mph 27.6 mph 0.00 in Snow Light Snow
8:53 AM 21.9 °F 8.2 °F 19.0 °F 89% 29.55 in 1.2 mi SW 16.1 mph 27.6 mph 0.00 in Snow Light Snow
9:05 AM 21.9 °F 6.9 °F 19.0 °F 89% 29.52 in 2.5 mi SW 19.6 mph 25.3 mph 0.00 in Snow Light Snow
9:25 AM 23.0 °F 8.7 °F 19.0 °F 85% 29.51 in 4.0 mi SW 18.4 mph 26.5 mph 0.00 in Snow Light Snow
9:45 AM 24.1 °F 11.5 °F 19.9 °F 84% 29.51 in 2.5 mi SW 15.0 mph 28.8 mph 0.00 in   Overcast
9:53 AM 24.1 °F 10.1 °F 19.9 °F 84% 29.55 in 4.0 mi WSW 18.4 mph 24.2 mph 0.00 in   Overcast
10:15 AM 24.1 °F 10.1 °F 21.0 °F 88% 29.50 in 2.0 mi SW 18.4 mph 25.3 mph 0.00 in Snow Light Snow
10:34 AM 25.0 °F 11.7 °F 21.0 °F 85% 29.50 in 4.0 mi SW 17.3 mph 25.3 mph 0.00 in Snow Light Snow
10:50 AM 24.8 °F 11.9 °F 21.2 °F 86% 29.50 in 5.0 mi WSW 16.1 mph 23.0 mph 0.00 in Snow Light Snow
10:53 AM 26.1 °F 14.0 °F 21.0 °F 81% 29.53 in 5.0 mi WSW 15.0 mph 23.0 mph 0.00 in   Haze
11:53 AM 28.0 °F 18.1 °F 21.9 °F 78% 29.52 in 10.0 mi WSW 11.5 mph 24.2 mph 0.00 in   Overcast
12:35 PM 30.9 °F 18.1 °F 19.9 °F 64% 29.47 in 6.0 mi West 21.9 mph 35.7 mph N/A   Haze
12:53 PM 32.0 °F 19.2 °F 19.9 °F 61% 29.50 in 9.0 mi West 23.0 mph 34.5 mph N/A   Mostly Cloudy
1:53 PM 33.1 °F 21.2 °F 16.0 °F 50% 29.50 in 10.0 mi West 20.7 mph 38.0 mph N/A   Overcast
2:26 PM 30.0 °F 15.2 °F 14.0 °F 51% 29.49 in 2.5 mi WNW 28.8 mph 48.3 mph 0.00 in   Scattered Clouds
2:37 PM 30.0 °F 14.9 °F 12.0 °F 47% 29.50 in 5.0 mi West 29.9 mph 42.6 mph 0.00 in   Clear
2:53 PM 28.9 °F 13.2 °F 7.0 °F 40% 29.55 in 6.0 mi West 31.1 mph 41.4 mph 0.00 in   Haze
3:53 PM 25.0 °F 10.6 °F 9.0 °F 51% 29.60 in 10.0 mi WNW 20.7 mph 33.4 mph 0.00 in   Clear
4:53 PM 23.0 °F 8.0 °F 10.9 °F 60% 29.67 in 10.0 mi WNW 20.7 mph 31.1 mph N/A   Mostly Cloudy
5:12 PM 21.9 °F 5.8 °F 12.0 °F 66% 29.65 in 10.0 mi WNW 23.0 mph 31.1 mph N/A   Overcast
5:21 PM 21.0 °F 5.0 °F 12.0 °F 68% 29.66 in 9.0 mi WNW 21.9 mph 29.9 mph N/A   Overcast
5:53 PM 19.9 °F 6.2 °F 12.0 °F 71% 29.74 in 8.0 mi West 15.0 mph 23.0 mph 0.00 in Snow Light Snow
6:53 PM 18.0 °F 3.1 °F 5.0 °F 57% 29.79 in 10.0 mi West 16.1 mph 27.6 mph 0.00 in   Mostly Cloudy
7:40 PM 17.1 °F 3.0 °F 6.1 °F 62% 29.79 in 10.0 mi West 13.8 mph 25.3 mph N/A   Mostly Cloudy
7:53 PM 16.0 °F 1.1 °F 5.0 °F 62% 29.84 in 10.0 mi WNW 15.0 mph - N/A   Mostly Cloudy
8:20 PM 15.1 °F -0.6 °F 3.0 °F 59% 29.81 in 10.0 mi West 16.1 mph 23.0 mph N/A   Scattered Clouds
8:53 PM 14.0 °F 2.0 °F 1.0 °F 56% 29.87 in 10.0 mi West 9.2 mph - N/A   Clear
9:53 PM 12.9 °F -0.9 °F 1.0 °F 59% 29.89 in 10.0 mi West 11.5 mph - N/A   Clear
10:53 PM 12.0 °F -2.0 °F 1.0 °F 61% 29.91 in 10.0 mi West 11.5 mph - N/A   Clear
11:53 PM 10.9 °F 0.2 °F -0.0 °F 61% 29.90 in 10.0 mi West 6.9 mph - N/A   Clear